Home   Weather   Pond Inlet   Past weeks

Flag for Canada Past Weather in Pond Inlet, Nunavut, Canada — Yesterday and Last 2 Weeks

7 °F


Feels Like: -10 °F
Forecast: -1 / 1 °F
Wind: 14 mph from South

Location: Pond Inlet

Current Time: Oct 22, 2016 at 3:13:56 AM

Latest Report: Oct 22, 2016 at 2:00 AM

Visibility: 9 mi

Pressure: 30.24 "Hg

Humidity: 78%

Dew Point: 1 °F

Location of Pond InletLocation

Past Weather in Pond Inlet — Graph


Pond Inlet Temperature Yesterday

Maximum temperature yesterday: 16 °F (at 4:00 AM)
Minimum temperature yesterday: 5 °F (at 10:00 AM)
Average temperature yesterday: 9 °F

High & Low Weather Summary for the Past Weeks

High28 °F (Oct 7, 2:00 AM)93% (Oct 7, 2:00 AM)30.24 "Hg (Oct 7, 2:00 AM)
Low3 °F (Oct 13, 7:00 AM)66% (Oct 21, 2:00 PM)29.60 "Hg (Oct 20, 12:00 PM)
Average16 °F84%29.89 "Hg
* Reported Oct 7 2:00 AM — Oct 22 2:00 AM, Pond Inlet, Weather by CustomWeather, © 2016

Note: Actual official high and low records may vary slightly from our data, if they occured in-between our weather recording intervals... More about our weather records


Pond Inlet Weather History for the Previous 24 Hours

Scroll right to see more
Time TempWeatherWind HumidityBarometerVisibility
2:00 AM
Sat, Oct 22
7 °FOvercast.14 mph78%30.24 "Hg9 mi
1:00 AM7 °FOvercast.14 mph72%30.22 "Hg9 mi
12:00 AM5 °FOvercast.15 mph85%30.20 "Hg9 mi
11:00 PM
Fri, Oct 21
5 °FOvercast.15 mph78%30.19 "Hg9 mi
10:00 PM7 °FClear.12 mph66%30.17 "Hg9 mi
9:00 PM7 °FOvercast.12 mph72%30.16 "Hg9 mi
8:00 PM9 °FOvercast.12 mph72%30.15 "Hg9 mi
7:00 PM9 °FPassing clouds.13 mph72%30.13 "Hg15 mi
6:00 PM9 °FPassing clouds.10 mph72%30.11 "Hg40 mi
5:00 PM9 °FPassing clouds.10 mph78%30.10 "Hg40 mi
4:00 PM10 °FPassing clouds.8 mph72%30.08 "Hg40 mi
3:00 PM12 °FPassing clouds.5 mph67%30.06 "Hg40 mi
2:00 PM9 °FPartly sunny.7 mph66%30.04 "Hg40 mi
1:00 PM7 °FPartly sunny.8 mph72%30.02 "Hg40 mi
12:00 PM7 °FPartly sunny.6 mph78%30.00 "Hg40 mi
11:00 AM7 °FScattered clouds.3 mph78%29.98 "Hg40 mi
10:00 AM5 °FSunny.6 mph78%29.96 "Hg9 mi
9:00 AM7 °FSunny.3 mph78%29.95 "Hg9 mi
8:00 AM7 °FSunny.2 mph72%29.93 "Hg9 mi
7:00 AM10 °FClear.6 mph67%29.91 "Hg9 mi
6:00 AM9 °FClear.7 mph72%29.89 "Hg9 mi
5:00 AM9 °FClear.6 mph78%29.87 "Hg9 mi
4:00 AM16 °FPassing clouds.No wind67%29.84 "Hg9 mi
3:00 AM12 °FPassing clouds.7 mph79%29.81 "Hg9 mi
Weather by CustomWeather, © 2016

See weather overviewHow to use our weather pages